GW5636 Weather Reports


time (UTC)temp
C
wind
direction
speed
KPH
gust
KPH
rain 1hr
cm
rain 24hr
cm
rain mn
cm
humidity
%
barometer
mb
20260506045121 13 324 0.0 0.0 0.00 0.00 0.00 88 1018.2
20260506044619 13 324 0.0 0.0 0.00 0.00 0.00 88 1018.1
20260506044115 13 324 0.0 0.0 0.00 0.00 0.00 88 1018.1
20260506043612 13 324 0.0 0.0 0.00 0.00 0.00 88 1018.0
20260506043111 13 324 0.0 0.0 0.00 0.00 0.00 87 1017.8
20260506042609 13 324 0.0 0.0 0.00 0.00 0.00 87 1017.7
20260506042107 14 324 0.0 0.0 0.00 0.00 0.00 87 1017.7
20260506041606 14 324 0.0 0.0 0.00 0.00 0.00 87 1018.0
20260506041102 14 324 0.0 0.0 0.00 0.00 0.00 87 1017.6
20260506040600 14 324 0.0 1.6 0.00 0.00 0.00 86 1017.8
20260506040056 14 324 0.0 0.0 0.00 0.00 0.00 86 1017.7
20260506035553 14 324 0.0 0.0 0.00 0.00 0.00 86 1017.7
20260506035050 14 324 0.0 0.0 0.00 0.00 0.00 86 1017.4
20260506034547 14 324 0.0 0.0 0.00 0.00 0.00 85 1017.5
20260506034044 14 324 0.0 0.0 0.00 0.00 0.00 85 1017.4
20260506033541 14 324 0.0 0.0 0.00 0.00 0.00 84 1017.4
20260506033038 14 324 0.0 0.0 0.00 0.00 0.00 84 1017.4
20260506032535 14 324 0.0 0.0 0.00 0.00 0.00 84 1017.3
20260506032032 14 324 0.0 0.0 0.00 0.00 0.00 84 1017.1
20260506031530 15 324 0.0 0.0 0.00 0.00 0.00 84 1017.3
20260506031026 15 324 0.0 0.0 0.00 0.00 0.00 83 1017.3
20260506030525 15 324 0.0 0.0 0.00 0.00 0.00 82 1016.8
20260506030022 15 324 0.0 0.0 0.00 0.00 0.00 82 1016.8
20260506025519 15 324 0.0 0.0 0.00 0.00 0.00 81 1017.1
20260506025015 15 324 0.0 0.0 0.00 0.00 0.00 80 1017.2
20260506024512 15 324 0.0 0.0 0.00 0.00 0.00 80 1016.7
20260506024008 15 324 0.0 0.0 0.00 0.00 0.00 80 1017.1
20260506023504 15 324 0.0 0.0 0.00 0.00 0.00 79 1017.2
20260506023001 15 324 0.0 0.0 0.00 0.00 0.00 79 1016.9
20260506022459 15 324 0.0 0.0 0.00 0.00 0.00 78 1016.9
20260506021956 15 324 0.0 0.0 0.00 0.00 0.00 77 1016.9
20260506021454 15 324 0.0 0.0 0.00 0.00 0.00 78 1017.2
20260506020951 15 324 0.0 0.0 0.00 0.00 0.00 78 1017.1
20260506020448 15 324 0.0 0.0 0.00 0.00 0.00 78 1017.1
20260506015945 15 324 0.0 0.0 0.00 0.00 0.00 77 1016.9
20260506015443 15 324 0.0 0.0 0.00 0.00 0.00 77 1016.9
20260506014939 16 324 0.0 0.0 0.00 0.00 0.00 76 1016.9
20260506014437 16 285 0.0 0.0 0.00 0.00 0.00 76 1016.9
20260506013933 16 285 0.0 0.0 0.00 0.00 0.00 76 1017.2
20260506013431 16 285 0.0 1.6 0.00 0.00 0.00 77 1016.9
20260506012927 16 284 0.0 1.6 0.00 0.00 0.00 76 1016.9
20260506012424 16 35 0.0 1.6 0.00 0.00 0.00 76 1016.7
20260506011921 16 221 0.0 0.0 0.00 0.00 0.00 76 1016.9
20260506011418 16 219 0.0 1.6 0.00 0.00 0.00 75 1016.7
20260506010915 16 218 0.0 3.2 0.00 0.00 0.00 75 1016.7
20260506010414 16 202 3.2 4.8 0.00 0.00 0.00 73 1016.6
20260506005910 16 201 0.0 1.6 0.00 0.00 0.00 75 1016.9
20260506005408 16 56 0.0 1.6 0.00 0.00 0.00 75 1016.9
20260506004902 16 219 0.0 0.0 0.00 0.00 0.00 75 1017.1
20260506004401 16 219 0.0 0.0 0.00 0.00 0.00 75 1016.9
20260506003856 16 219 1.6 1.6 0.00 0.00 0.00 74 1016.9
20260506003353 16 237 0.0 0.0 0.00 0.00 0.00 75 1016.9
20260506002849 16 212 0.0 1.6 0.00 0.00 0.00 74 1016.9
20260506002345 16 193 0.0 0.0 0.00 0.00 0.00 75 1016.9
20260506001841 16 194 0.0 0.0 0.00 0.00 0.00 75 1017.1
20260506001338 16 194 0.0 0.0 0.00 0.00 0.00 77 1016.9
20260506000835 16 194 0.0 1.6 0.00 0.00 0.00 76 1016.8
20260506000333 16 198 1.6 3.2 0.00 0.00 0.00 75 1017.2
20260505235830 16 180 3.2 3.2 0.00 0.00 0.00 74 1017.4
20260505235327 16 27 0.0 0.0 0.00 0.00 0.00 75 1017.5
20260505234824 16 27 0.0 1.6 0.00 0.00 0.00 74 1017.2
20260505234322 16 52 1.6 1.6 0.00 0.00 0.00 73 1017.2
20260505233819 16 68 0.0 1.6 0.00 0.00 0.00 74 1017.3
20260505233317 16 69 0.0 1.6 0.00 0.00 0.00 74 1017.3
20260505232813 16 24 0.0 1.6 0.00 0.00 0.00 74 1017.5
20260505232311 16 23 0.0 0.0 0.00 0.00 0.00 75 1017.2
20260505231808 16 23 1.6 1.6 0.00 0.00 0.00 75 1017.2
20260505231306 16 336 1.6 1.6 0.00 0.00 0.00 75 1017.2
20260505230804 16 65 1.6 1.6 0.00 0.00 0.00 74 1017.5
20260505230300 16 268 0.0 0.0 0.00 0.00 0.00 75 1017.4
20260505225757 16 35 0.0 1.6 0.00 0.00 0.00 77 1017.6
20260505225254 15 43 1.6 1.6 0.00 0.00 0.00 75 1017.7
20260505224749 15 15 1.6 3.2 0.00 0.00 0.00 75 1017.6
20260505224247 15 340 0.0 1.6 0.00 0.00 0.00 76 1017.5
20260505223744 15 48 0.0 1.6 0.00 0.00 0.00 77 1017.5
20260505223241 15 352 1.6 3.2 0.00 0.00 0.00 76 1017.5
20260505222737 15 42 0.0 1.6 0.00 0.00 0.00 77 1017.7
20260505222233 16 60 1.6 3.2 0.00 0.00 0.00 75 1017.7
20260505221731 16 6 1.6 1.6 0.00 0.00 0.00 75 1017.7
20260505221227 16 272 0.0 1.6 0.00 0.00 0.00 74 1017.7
20260505220724 16 236 0.0 0.0 0.00 0.00 0.00 73 1017.7
20260505220221 16 244 0.0 0.0 0.00 0.00 0.00 74 1017.8
20260505215719 16 176 0.0 4.8 0.00 0.00 0.00 76 1017.7
20260505215217 15 234 0.0 3.2 0.00 0.00 0.00 76 1017.8
20260505214714 15 257 1.6 1.6 0.00 0.00 0.00 75 1017.7
20260505214212 15 251 3.2 3.2 0.00 0.00 0.00 74 1017.9
20260505213709 16 117 0.0 1.6 0.00 0.00 0.00 75 1017.9
20260505213206 16 51 1.6 4.8 0.00 0.00 0.00 74 1017.9
20260505212702 16 294 0.0 0.0 0.00 0.00 0.00 76 1017.7
20260505212159 16 25 1.6 3.2 0.00 0.00 0.00 74 1017.8
20260505211656 16 264 0.0 1.6 0.00 0.00 0.00 75 1017.9
20260505211154 16 214 0.0 3.2 0.00 0.00 0.00 75 1017.8
20260505210650 15 95 1.6 1.6 0.00 0.00 0.00 75 1017.9
20260505210147 15 114 1.6 3.2 0.00 0.00 0.00 77 1017.8
20260505205644 15 341 0.0 1.6 0.00 0.00 0.00 75 1018.0
20260505205142 15 15 1.6 1.6 0.00 0.00 0.00 75 1017.9
20260505204638 15 287 0.0 1.6 0.00 0.00 0.00 77 1018.0
20260505204137 15 328 0.0 1.6 0.00 0.00 0.00 77 1017.9
20260505203633 15 263 0.0 1.6 0.00 0.00 0.00 77 1017.8
20260505203130 15 236 3.2 4.8 0.00 0.00 0.00 77 1017.8
20260505202626 15 188 0.0 3.2 0.00 0.00 0.00 78 1018.2
20260505202122 15 231 0.0 3.2 0.00 0.00 0.00 79 1018.2
20260505201619 14 276 0.0 1.6 0.00 0.00 0.00 80 1018.0
20260505201117 14 220 1.6 3.2 0.00 0.00 0.00 79 1017.9
20260505200615 15 163 3.2 4.8 0.00 0.00 0.00 78 1018.1
20260505200111 15 228 1.6 1.6 0.00 0.00 0.00 78 1018.0
20260505195607 15 158 4.8 4.8 0.00 0.00 0.00 77 1018.2
20260505195105 15 118 0.0 1.6 0.00 0.00 0.00 77 1018.2
20260505194602 15 199 0.0 1.6 0.00 0.00 0.00 78 1018.1
20260505194058 15 46 1.6 3.2 0.00 0.00 0.00 75 1018.0
20260505193555 15 25 0.0 1.6 0.00 0.00 0.00 77 1018.0
20260505193052 15 269 0.0 1.6 0.00 0.00 0.00 78 1018.1
20260505192551 15 121 0.0 1.6 0.00 0.00 0.00 78 1018.3
20260505192048 14 216 1.6 1.6 0.00 0.00 0.00 78 1018.3
20260505191546 14 359 0.0 1.6 0.00 0.00 0.00 79 1018.2
20260505191044 13 231 0.0 1.6 0.00 0.00 0.00 81 1018.3
20260505190543 13 234 1.6 3.2 0.00 0.00 0.00 79 1018.1
20260505190040 13 186 3.2 3.2 0.00 0.00 0.00 81 1018.1
20260505185537 13 137 0.0 0.0 0.00 0.00 0.00 82 1018.1
20260505185033 13 236 0.0 1.6 0.00 0.00 0.00 82 1018.2
20260505184530 13 33 1.6 3.2 0.00 0.00 0.00 82 1018.3
20260505184027 13 213 1.6 1.6 0.00 0.00 0.00 81 1018.0
20260505183524 13 329 0.0 1.6 0.00 0.00 0.00 81 1018.2
20260505183021 13 131 0.0 1.6 0.00 0.00 0.00 84 1018.3
20260505182517 13 357 1.6 1.6 0.00 0.00 0.00 83 1018.0
20260505182014 13 88 0.0 3.2 0.00 0.00 0.00 84 1018.0
20260505181511 13 167 3.2 3.2 0.00 0.00 0.00 84 1018.1
20260505181008 13 41 3.2 3.2 0.00 0.00 0.00 84 1018.3
20260505180504 13 301 1.6 1.6 0.00 0.00 0.00 83 1018.1
20260505180001 13 359 1.6 3.2 0.00 0.00 0.00 84 1018.2
20260505175457 12 13 1.6 3.2 0.00 0.00 0.00 86 1018.1
20260505174954 12 349 0.0 0.0 0.00 0.00 0.00 89 1018.1
20260505174451 12 8 1.6 3.2 0.00 0.00 0.00 88 1017.9
20260505173947 12 356 1.6 1.6 0.00 0.00 0.00 88 1018.0
20260505173443 12 328 1.6 3.2 0.00 0.00 0.00 89 1018.1
20260505172940 12 49 1.6 3.2 0.00 0.00 0.00 89 1018.2
20260505172439 12 310 0.0 1.6 0.00 0.00 0.00 90 1018.0
20260505171938 12 94 0.0 3.2 0.00 0.00 0.00 90 1017.9
20260505171435 12 80 1.6 3.2 0.00 0.00 0.00 90 1017.9
20260505170932 12 9 1.6 1.6 0.00 0.00 0.00 91 1017.9
20260505170428 11 35 0.0 1.6 0.00 0.00 0.00 91 1017.8
20260505165924 11 353 1.6 1.6 0.00 0.00 0.00 91 1017.7
20260505165420 11 358 0.0 1.6 0.00 0.00 0.00 91 1017.8
20260505164915 11 18 1.6 3.2 0.00 0.00 0.00 92 1017.6
20260505164412 11 357 1.6 3.2 0.00 0.00 0.00 92 1017.7
20260505163910 11 11 0.0 1.6 0.00 0.00 0.00 92 1017.7
20260505163409 11 20 3.2 3.2 0.00 0.00 0.00 92 1017.7
20260505162908 11 13 0.0 1.6 0.00 0.00 0.00 93 1017.8
20260505162403 11 359 1.6 1.6 0.00 0.00 0.00 94 1017.6
20260505161900 11 357 1.6 3.2 0.00 0.00 0.00 94 1017.5
20260505161357 11 44 1.6 3.2 0.00 0.00 0.00 95 1017.7
20260505160854 11 18 0.0 1.6 0.00 0.00 0.00 95 1017.5
20260505160353 11 18 0.0 1.6 0.00 0.00 0.00 96 1017.6
20260505153331 11 5 1.6 3.2 0.00 0.00 0.00 96 1017.7
20260505152828 11 24 0.0 1.6 0.00 0.00 0.00 95 1017.6
20260505152325 11 14 1.6 1.6 0.00 0.00 0.00 95 1017.6
20260505151825 11 14 0.0 1.6 0.00 0.00 0.00 95 1017.4
20260505151322 11 45 0.0 1.6 0.00 0.00 0.00 95 1017.3
20260505150819 11 75 3.2 3.2 0.00 0.00 0.00 96 1017.5
20260505150316 11 74 1.6 1.6 0.00 0.00 0.00 96 1017.3
20260505140241 10 92 0.0 0.0 0.00 0.00 0.00 95 1016.8
20260505130204 10 347 0.0 1.6 0.00 0.00 0.00 92 1016.5
20260505124654 10 344 0.0 1.6 0.00 0.00 0.00 92 1016.6
20260505124151 10 330 0.0 0.0 0.00 0.00 0.00 91 1016.5
20260505123647 10 330 0.0 0.0 0.00 0.00 0.00 91 1016.4
20260505123144 10 330 0.0 0.0 0.00 0.00 0.00 91 1016.5
20260505122640 10 330 0.0 0.0 0.00 0.00 0.00 91 1016.4
20260505122138 10 331 1.6 1.6 0.00 0.00 0.00 91 1016.5
20260505121634 10 330 0.0 0.0 0.00 0.00 0.00 91 1016.4
20260505121131 10 330 0.0 0.0 0.00 0.00 0.00 91 1016.4
20260505120627 10 330 0.0 1.6 0.00 0.00 0.00 91 1016.4
20260505120124 11 330 1.6 1.6 0.00 0.00 0.00 91 1016.3
20260505115623 10 330 1.6 1.6 0.00 0.00 0.00 91 1016.4
20260505115121 11 3 1.6 3.2 0.00 0.00 0.00 91 1016.5
20260505114618 11 5 0.0 1.6 0.00 0.00 0.00 91 1016.3
20260505114114 11 14 0.0 1.6 0.00 0.00 0.00 91 1016.2
20260505113610 11 14 0.0 1.6 0.00 0.00 0.00 91 1016.4
20260505113108 11 14 0.0 1.6 0.00 0.00 0.00 91 1016.2
20260505112604 11 10 1.6 1.6 0.00 0.00 0.00 91 1016.1
20260505112103 11 10 1.6 1.6 0.00 0.00 0.00 91 1016.2
20260505111601 11 2 0.0 1.6 0.00 0.00 0.00 91 1016.2
20260505111057 11 45 0.0 3.2 0.00 0.00 0.00 91 1016.2
20260505110554 11 352 1.6 1.6 0.00 0.00 0.00 91 1016.2
20260505102027 11 45 0.0 1.6 0.00 0.00 0.00 90 1016.0
20260505101525 11 45 0.0 1.6 0.00 0.00 0.00 90 1015.8
20260505101021 11 44 0.0 1.6 0.00 0.00 0.00 90 1015.7
20260505100518 11 45 1.6 1.6 0.00 0.00 0.00 90 1015.9
20260505100015 11 43 0.0 1.6 0.00 0.00 0.00 90 1015.8
20260505095511 11 40 0.0 1.6 0.00 0.00 0.00 90 1015.9
20260505095007 11 40 0.0 1.6 0.00 0.00 0.00 90 1016.1
20260505094504 11 40 0.0 1.6 0.00 0.00 0.00 90 1015.9
20260505094000 11 39 0.0 3.2 0.00 0.00 0.00 89 1015.9
20260505093457 11 23 1.6 1.6 0.00 0.00 0.00 90 1015.9
20260505092954 11 22 1.6 1.6 0.00 0.00 0.00 90 1015.6
20260505092452 11 19 0.0 1.6 0.00 0.00 0.00 90 1015.9
20260505091949 11 13 3.2 4.8 0.00 0.00 0.00 89 1015.6
20260505091447 11 12 1.6 3.2 0.00 0.00 0.00 89 1015.7
20260505090944 11 12 1.6 3.2 0.00 0.00 0.00 89 1015.5
20260505090443 11 10 1.6 3.2 0.00 0.00 0.00 89 1015.4
20260505085940 11 9 3.2 3.2 0.00 0.00 0.00 89 1015.5
20260505085437 11 353 1.6 3.2 0.00 0.00 0.00 89 1015.7
20260505084935 11 5 3.2 3.2 0.00 0.00 0.00 89 1015.6
20260505084434 11 337 0.0 1.6 0.00 0.00 0.00 89 1015.7
20260505083931 11 24 1.6 3.2 0.00 0.00 0.00 89 1015.5
20260505083428 11 20 1.6 4.8 0.00 0.00 0.00 89 1015.5
20260505082924 11 354 1.6 3.2 0.00 0.00 0.00 89 1015.5
20260505082420 11 349 1.6 4.8 0.00 0.00 0.00 89 1015.3
20260505081917 11 63 1.6 1.6 0.00 0.00 0.00 89 1015.4
20260505081414 11 3 1.6 3.2 0.00 0.00 0.00 89 1015.4
20260505080911 11 9 1.6 3.2 0.00 0.00 0.00 89 1015.5
20260505080407 11 8 3.2 3.2 0.00 0.00 0.00 89 1015.4
20260505075902 11 14 4.8 4.8 0.00 0.00 0.00 89 1015.6
20260505075359 11 38 3.2 4.8 0.00 0.00 0.00 88 1015.5
20260505074857 11 10 3.2 4.8 0.00 0.00 0.00 88 1015.2
20260505074354 11 16 3.2 4.8 0.00 0.00 0.00 88 1015.3
20260505073851 11 22 3.2 4.8 0.00 0.00 0.00 88 1015.2
20260505073349 11 14 1.6 4.8 0.00 0.00 0.00 87 1015.3
20260505072846 11 15 1.6 3.2 0.00 0.00 0.00 87 1015.2
20260505072342 11 17 1.6 4.8 0.00 0.00 0.00 87 1015.0
20260505071838 11 353 1.6 3.2 0.00 0.00 0.00 87 1015.0
20260505071334 11 8 1.6 4.8 0.00 0.00 0.00 87 1015.0
20260505070833 11 343 1.6 3.2 0.00 0.00 0.00 87 1014.9
20260505070329 12 346 1.6 6.4 0.00 0.00 0.00 86 1014.7
20260505065824 12 2 3.2 4.8 0.00 0.00 0.00 86 1014.7
20260505065321 12 8 4.8 4.8 0.00 0.00 0.00 85 1014.7
20260505064818 12 30 3.2 6.4 0.00 0.00 0.00 85 1014.7
20260505064315 12 22 3.2 4.8 0.00 0.00 0.00 85 1014.6
20260505063814 12 12 3.2 4.8 0.00 0.00 0.00 84 1014.5
20260505063309 12 22 4.8 6.4 0.00 0.00 0.00 84 1014.6
20260505062806 12 1 3.2 4.8 0.00 0.00 0.00 84 1014.7
20260505062304 12 20 3.2 4.8 0.00 0.00 0.00 83 1014.8
20260505061800 12 23 3.2 4.8 0.00 0.00 0.00 83 1014.6
20260505061258 12 18 3.2 4.8 0.00 0.00 0.00 83 1014.8
20260505060755 12 16 3.2 4.8 0.00 0.00 0.00 82 1014.8
20260505060252 12 359 3.2 4.8 0.00 0.00 0.00 82 1014.5
20260505055747 13 0 3.2 4.8 0.00 0.00 0.00 81 1014.6
20260505055244 13 15 3.2 3.2 0.00 0.00 0.00 80 1014.5
20260505054741 13 14 1.6 4.8 0.00 0.00 0.00 80 1014.5
20260505054239 13 18 3.2 6.4 0.00 0.00 0.00 79 1014.3
20260505053737 13 31 4.8 6.4 0.00 0.00 0.00 78 1014.4
20260505053233 13 27 4.8 4.8 0.00 0.00 0.00 77 1014.2
20260505052731 13 15 4.8 6.4 0.00 0.00 0.00 77 1014.4
20260505052228 14 15 4.8 9.7 0.00 0.00 0.00 77 1014.2
20260505051725 14 15 4.8 6.4 0.00 0.00 0.00 76 1014.4
20260505051223 14 347 3.2 4.8 0.00 0.00 0.00 77 1014.4
20260505050720 15 25 3.2 4.8 0.00 0.00 0.00 77 1014.2
20260505050218 15 35 3.2 4.8 0.00 0.00 0.00 79 1014.2